Other Public Products
Issued by NWS Charleston, SC

Current Version | Previous Version | Text Only | Print | Product List | Glossary Off
Versions: 1 2 3 4 5 6 7 8 9 10 11 12 13 14 15 16 17 18 19 20 21 22 23 24 25 26 27 28 29 30 31 32 33 34 35 36 37 38 39 40 41 42 43 44 45 46 47 48 49 50
000 FPUS82 KCHS 200927 OPUCHS TEST...KCHS/KSAV Gateway Observations...TEST National Weather Service Charleston SC 500 AM EDT THU JUL 20 2017 NOTE: "fair" indicates few or no clouds below 12,000 feet with no significant weather and/or obstructions to visibility. SCZ050-WAZ558-NCZ071-TXZ119-213-PAZ071-DCZ001-FLZ074-172-MI076- NYZ176-178-MAZ016-IL014-TNZ027-NJZ106-GAZ044-MD014-201000- ...Gateway Observations for Charleston International... CITY SKY/WX TMP DP RH WIND PRES REMARKS Chas Airport CLEAR 72 70 93 CALM 30.07R Seattle CLOUDY 61 54 77 S8 30.06S Charlotte PTCLDY 71 68 90 CALM 30.08S Dallas DFW CLEAR 83 72 69 S6 30.07R Dallas Love PTCLDY 83 72 69 S8 30.08R Philladelphia PTCLDY 79 74 84 S5 29.98S Wash National CLEAR 80 74 81 SW6 30.00S Baltimore MOCLDY 75 74 96 CALM 29.99F Miami MOCLDY 80 75 84 CALM 30.05R Detroit CLOUDY 73 71 93 E5 29.99F Newark PTCLDY 80 70 71 W6 29.96S Laguardia PTCLDY 79 73 82 NE3 29.95S J F K MOCLDY 77 76 96 SW6 29.96F Boston Logan PTCLDY 75 63 66 CALM 29.93F Ft. Lauderdale MOCLDY 80 77 90 CALM 30.04S Chicago O`Hare CLOUDY 71 67 87 W8 30.00R Chicago Midway CLOUDY 71 68 90 SW7 29.99S Houston Bush PTCLDY 79 75 87 CALM 30.09R Houston Hobby PTCLDY 81 76 84 CALM 30.09R Nashville PTCLDY 74 72 93 CALM 30.10F Atlanta PTCLDY 75 70 84 NW6 30.10S $$ GAZ044-118-TXZ119-213-NCZ071-DCZ001-MDZ014-506-PAZ021-071-NJZ106- NYZ176-178-MAZ106-OHZ011-021-055-MIZ076-KYZ091-ILZ014-INZ047- MNZ060-ONZ431-201000- ...Gateway Observations for Savannah International... CITY SKY/WX TMP DP RH WIND PRES REMARKS Savannah Arpt CLEAR 74 72 93 CALM 30.07S Atlanta PTCLDY 75 70 84 NW6 30.10S Charlotte PTCLDY 71 68 90 CALM 30.08S Dallas DFW CLEAR 83 72 69 S6 30.07R Houston Bush PTCLDY 79 75 87 CALM 30.09R Wash National CLEAR 80 74 81 SW6 30.00S Wash Dulles MOCLDY 72 71 97 CALM 30.01S Baltimore MOCLDY 75 74 96 CALM 29.99F Philadelphia PTCLDY 79 74 84 S5 29.98S Newark PTCLDY 80 70 71 W6 29.96S Laguardia PTCLDY 79 73 82 NE3 29.95S J F K MOCLDY 77 76 96 SW6 29.96F Boston PTCLDY 75 63 66 CALM 29.93F Pittsburg PTCLDY 72 69 90 W3 30.04F Akron PTCLDY 72 65 78 SW5 30.05S Cleveland CLOUDY 75 67 76 SW5 30.03F Cincinnati PTCLDY 68 68 100 CALM 30.08S Columbus CLEAR 69 68 98 S3 30.05S Detroit CLOUDY 73 71 93 E5 29.99F Chicago O`Hare CLOUDY 71 67 87 W8 30.00R Minneapolis PTCLDY 69 66 90 N3 29.94R Indianapolis MOCLDY 77 71 82 S10 30.02F Toronto Canada MOCLDY 63 55 77 W5 30.00R $$

USA.gov is the U.S. government's official web portal to all federal, state and local government web resources and services.